shoulder
new_line
new_line
first
second
third
Al di la della Luna; Beyond the Moon; Astrophotography; Astrofotografia; Danilo Pivato
 
 
         
         
1992

Orbital Elements

Epoch 1995 Oct 10.0 TT = JDT 2450000.5
T 1992 December 11.999784556297 TT                                                                MPC
q   0.95951615            (2000.0)                                    P               Q
n   0.00739505      Peri.  152.982167          -0.00000000    +0.00000000
a   26.0920694      Node 139.381192         -0.00000000     +0.00000000
e   0.96322257      Incl.   113.453816         -0.00000000    -0.00000000
P   133.28        
Return in the future: 2126
 
         
         
1992.11.18 300mm
1992.11.18 Newton
1992.11.19 300mm
1992.11.19 Newton
         
         
       
         
         
         
         
         
         

 

       
 
Since: 01/01/2004
 
           
Since: 01/11/2010